AirNav   Air Wisconsin Up To $57,000 Bonus
 
 842 users online  

KTQH Tahlequah Municipal Airport
Tahlequah, Oklahoma, USA

GOING TO TAHLEQUAH?


FAA INFORMATION EFFECTIVE 26 JANUARY 2023

Location

FAA Identifier: TQH
Lat/Long: 35-55-49.0000N 095-00-16.3000W
35-55.816667N 095-00.271667W
35.9302778,-95.0045278
(estimated)
Elevation: 874.1 ft. / 266.4 m (surveyed)
Variation: 05E (1995)
From city: 2 miles NW of TAHLEQUAH, OK
Time zone: UTC -6 (UTC -5 during Daylight Saving Time)
Zip code: 74464

Airport Operations

Airport use: Open to the public
Activation date: 10/1948
Control tower: no
ARTCC: MEMPHIS CENTER
FSS: MC ALESTER FLIGHT SERVICE STATION
NOTAMs facility: TQH (NOTAM-D service available)
Attendance: MON-FRI 0800-1700
Wind indicator: yes
Segmented circle: yes
Lights: ACTVT REIL RWY 17 & 35; MIRL RWY 17/35 - CTAF. PAPI RWY 17 & 35 ON CONSLY.
Beacon: white-green (lighted land airport)
Operates sunset to sunrise.

Airport Communications

CTAF/UNICOM: 122.8
WX AWOS-3P: 118.425 (918-453-2729)
  • APCH/DEP SVC PRVDD BY MEMPHIS ARTCC ON FREQS 126.1/269.0 (FAYETTEVILLE RCAG).

Nearby radio navigation aids

NDB name  Hdg/Dist  Freq  Var  ID
SILOAM SPRINGS234/29.528404ESLG ... .-.. --.

Airport Services

Fuel available: 100LL JET-A
Parking: hangars and tiedowns
Airframe service: MINOR
Powerplant service: MINOR

Runway Information

Runway 17/35

Dimensions: 5001 x 75 ft. / 1524 x 23 m
Surface: asphalt, in good condition
Weight bearing capacity: 
Single wheel: 26.0
Runway edge lights: medium intensity
RUNWAY 17  RUNWAY 35
Latitude: 35-56.228988N35-55.405447N
Longitude: 095-00.251395W095-00.290892W
Elevation: 869.4 ft.851.2 ft.
Traffic pattern: leftleft
Runway heading: 177 magnetic, 182 true357 magnetic, 002 true
Markings: nonprecision, in good conditionnonprecision, in good condition
Visual slope indicator: 4-light PAPI on left (3.50 degrees glide path)4-light PAPI on left (3.00 degrees glide path)
PAPI UNUSBL BYD 8 DEGS RIGHT OF CNTRLN.
Runway end identifier lights: yesyes
Touchdown point: yes, no lightsyes, no lights
Obstructions: 34 ft. trees, 719 ft. from runway, 150 ft. right of centerline, 15:1 slope to clear19 ft. trees, 240 ft. from runway, 112 ft. left of centerline, 2:1 slope to clear
18 FT TREE 185 FT FM RWY END 120 FT L OF CNTRLN.

Airport Ownership and Management from official FAA records

Ownership: Publicly-owned
Owner: CITY OF TAHLEQUAH
CITY HALL, 111 S. CHEROKEE
TAHLEQUAH, OK 74464
Phone 918-456-0561
Manager: BRIAN LAMBERT
2100 AIRPORT PARKWAY
TAHLEQUAH, OK 74464
Phone (918) 708-5600

Airport Operational Statistics

Aircraft based on the field: 36
Single engine airplanes: 31
Multi engine airplanes: 3
Jet airplanes: 2
    
Aircraft operations: avg 42/day *
56% local general aviation
44% transient general aviation
* for 12-month period ending 30 September 2021

Additional Remarks

FOR CD CTC MEMPHIS ARTCC AT 901-368-8453/8449.

Instrument Procedures

NOTE: All procedures below are presented as PDF files. If you need a reader for these files, you should download the free Adobe Reader.

NOT FOR NAVIGATION. Please procure official charts for flight.
FAA instrument procedures published for use from 26 January 2023 at 0901Z to 23 February 2023 at 0900z.

 
IAPs - Instrument Approach Procedures
RNAV (GPS) RWY 17   download
RNAV (GPS) RWY 35   download
NOTE: Special Alternate Minimums apply   download (122KB)
NOTE: Special Take-Off Minimums/Departure Procedures apply   download (131KB)

Other nearby airports with instrument procedures:

H68 - Hefner-Easley Airport (17 nm W)
H71 - Mid-America Industrial Airport (24 nm NW)
KMKO - Muskogee-Davis Regional Airport (24 nm SW)
KSLG - Smith Field Airport (29 nm NE)
KJSV - Sallisaw Municipal Airport (31 nm S)
 
Loc | Ops | Rwys | IFR | FBO | Links
Com | Nav | Svcs | Stats | Notes
Area around KTQH (Tahlequah Municipal Airport)
 
Road maps at: MapQuest Bing Google
 
Aerial photo
WARNING: Photo may not be current or correct
Aerial photo of KTQH (Tahlequah Municipal Airport)
Photo by Renee LaCombe
Photo taken 07-Nov-2013
looking north.

Do you have a better or more recent aerial photo of Tahlequah Municipal Airport that you would like to share? If so, please send us your photo.

 
Sectional chart

 
Airport distance calculator
Flying to Tahlequah Municipal Airport? Find the distance to fly.

From to KTQH

Sunrise and sunset
Times for 06-Feb-2023
 Local
(UTC-6)
 Zulu
(UTC)
Morning civil twilight06:5112:51
Sunrise07:1713:17
Sunset17:5123:51
Evening civil twilight18:1800:18

Current date and time
Zulu (UTC)  06-Feb-2023 12:38:52
Local (UTC-6)  06-Feb-2023 06:38:52
 
METAR
KTQH 061215Z AUTO 13007KT 10SM CLR 08/05 A2999 RMK AO2
TAF
KXNA 
40nm NE 
060520Z 0606/0706 11003KT P6SM SKC FM061000 16011KT P6SM SCT080 WS020/20035KT FM061400 17015G27KT P6SM SCT025 BKN050 TEMPO 0615/0619 BKN025 FM061900 18015G25KT P6SM BKN025 FM070000 18012G20KT P6SM BKN025
KFYV 
41nm E 
061140Z 0612/0712 16008KT P6SM SCT250 WS020/20035KT FM061600 17015G25KT P6SM SCT018 BKN250 TEMPO 0617/0620 BKN015 FM062000 19017G27KT P6SM BKN025 FM070000 19012G18KT P6SM SCT025 BKN035 FM070600 19011KT P6SM BKN025 PROB30 0707/0710 5SM -RA BKN015 FM071000 30008KT P6SM VCSH BKN015
KTUL 
46nm W 
061140Z 0612/0712 16012KT P6SM BKN250 WS020/20040KT FM061500 17014G23KT P6SM BKN250 FM061700 19018G29KT P6SM SCT025 BKN250 FM062100 19015G24KT P6SM BKN045 FM070200 19012KT P6SM BKN025 PROB30 0704/0707 5SM -RA BKN015 FM070700 34011KT P6SM VCSH BKN035 BKN090
KFSM 
47nm SE 
061140Z 0612/0712 07007KT P6SM SCT025 SCT250 WS020/20035KT TEMPO 0614/0618 BKN015 FM061800 18014KT P6SM BKN025 FM070000 17009KT P6SM SCT025 BKN035 TEMPO 0706/0708 BKN025 FM070800 19007KT P6SM BKN025 PROB30 0709/0712 5SM -RA BKN015
KRVS 
48nm W 
061140Z 0612/0712 16011KT P6SM SCT250 WS020/20040KT FM061500 17014G22KT P6SM BKN250 FM061700 19017G27KT P6SM SCT025 BKN250 FM062100 19015G23KT P6SM BKN045 FM070200 19010KT P6SM BKN025 PROB30 0704/0707 5SM -RA BKN015 FM070700 34011KT P6SM VCSH BKN035 BKN090
NOTAMs
Click for the latest NOTAMs
NOTAMs are issued by the DoD/FAA and will open in a separate window not controlled by AirNav.

 

 
 

FBO, Fuel Providers, and Aircraft Ground Support

  
 Business Name 
 
 Contact 
 
 Services / Description 
 
Fuel Prices
 
Comments
  
City of Tahlequah (FBO) 918-431-4139
no information available

If you are affiliated with City of Tahlequah (FBO) and would like to show here your services, contact info, web link, logo, and more, click here
no prices available
 
   1 read write
Update Fuel Prices
 

Would you like to see your business listed on this page?

 If your business provides an interesting product or service to pilots, flight crews, aircraft, or users of the Tahlequah Municipal Airport, you should consider listing it here.  To start the listing process, click on the button below
 
Add a business
 

Other Pages about Tahlequah Municipal Airport

www.cityoftahlequah.com/...
 
Update a link
 
Copyright © AirNav, LLC. All rights reserved. Privacy Policy  Contact